1485939600.58,29835,9.94,73396.5,-5.01,-9.57,-9.57,0,*51
1485939601.81,29836,9.94,73398.5,-5.03,-9.71,-9.79,0,*58
1485939603.0,29837,9.94,73400.3,-5.01,-9.67,-9.67,0,*53
1485939604.25,29838,9.94,73406.3,-5.01,-9.41,-9.45,0,*58
1485939605.49,29839,9.94,73404.5,-5.03,-9.53,-9.67,0,*58
1485939606.73,29840,9.94,73408.8,-5.01,-9.53,-9.53,0,*53
1485939607.98,29841,9.94,73410.8,-5.01,-9.41,-9.45,0,*56
1485939609.2,29842,9.94,73408.5,-5.01,-9.15,-9.31,0,*57
1485939610.45,29843,9.94,73406.3,-5.03,-8.89,-9.15,0,*56
1485939611.67,29844,9.94,73404.3,-5.01,-8.41,-8.51,0,*56
1485939612.91,29845,9.94,73412.5,-5.01,-7.77,-7.77,0,*56
1485939614.15,29846,9.94,73410.3,-5.01,-7.91,-7.69,0,*52
1485939615.4,29847,9.94,73410.5,-4.97,-7.77,-7.53,0,*5C
1485939616.64,29848,9.94,73414.0,-4.97,-7.49,-7.31,0,*5A
1485939617.92,29849,9.94,73410.0,-4.97,-7.65,-7.43,0,*50
1485939619.2,29850,9.94,73410.0,-4.97,-7.91,-7.61,0,*53
1485939620.42,29851,9.94,73404.3,-4.95,-8.17,-7.77,0,*56
1485939621.7,29852,9.94,73406.8,-4.97,-8.11,-7.61,0,*56
1485939622.98,29853,9.94,73404.5,-4.97,-8.11,-7.61,0,*57
1485939624.23,29854,9.94,73402.5,-4.97,-8.37,-7.77,0,*53
1485939625.48,29855,9.94,73402.3,-4.97,-8.41,-7.91,0,*5B
1485939626.73,29856,9.94,73400.8,-4.97,-8.45,-7.91,0,*5C
1485939627.98,29857,9.94,73398.3,-4.97,-8.45,-7.99,0,*55
1485939629.2,29858,9.94,73400.3,-5.01,-8.41,-7.91,0,*58
1485939630.44,29859,9.94,73404.3,-4.97,-8.03,-7.53,0,*5F
1485939631.69,29860,9.94,73400.8,-4.95,-7.77,-7.43,0,*5A
1485939632.91,29861,9.94,73402.5,-4.97,-7.49,-7.19,0,*5B
1485939634.18,29862,9.94,73400.8,-4.97,-7.43,-7.05,0,*5F
1485939635.45,29863,9.94,73396.5,-4.97,-7.31,-6.97,0,*51
1485939636.67,29864,9.94,73400.8,-4.95,-7.35,-7.11,0,*5F
1485939637.92,29865,9.94,73404.5,-4.97,-7.23,-6.97,0,*54
1485939639.14,29866,9.94,73408.3,-4.95,-7.11,-6.93,0,*50
1485939640.36,29867,9.94,73410.8,-4.95,-6.93,-6.85,0,*5D
1485939641.56,29868,9.94,73410.3,-4.95,-7.23,-7.11,0,*54
1485939642.81,29869,9.94,73410.3,-4.95,-7.05,-6.93,0,*5A
1485939644.03,29870,9.94,73406.8,-4.95,-7.35,-7.23,0,*5B
1485939645.3,29871,9.94,73406.5,-4.93,-7.43,-7.31,0,*5E
1485939646.58,29872,9.94,73404.3,-4.93,-7.61,-7.43,0,*58
1485939647.83,29873,9.94,73404.0,-4.93,-7.69,-7.49,0,*5B
1485939649.1,29874,9.94,73404.0,-4.93,-7.99,-7.73,0,*5A
1485939650.32,29875,9.94,73408.0,-4.95,-7.73,-7.53,0,*5B
1485939651.57,29876,9.94,73408.5,-4.95,-7.91,-7.73,0,*56
1485939652.81,29877,9.94,73406.5,-4.95,-8.11,-7.99,0,*54
1485939654.06,29878,9.94,73402.0,-4.97,-8.25,-7.91,0,*56
1485939655.31,29879,9.94,73402.3,-4.93,-8.51,-8.25,0,*50
1485939656.54,29880,9.94,73402.5,-4.93,-8.37,-8.37,0,*55
1485939657.73,29881,9.94,73406.0,-4.95,-8.29,-8.17,0,*5F
1485939659.0,29882,9.94,73408.5,-4.93,-8.11,-8.11,0,*57
1485939660.19,29883,9.94,73402.3,-4.91,-8.33,-8.25,0,*53
1485939661.41,29884,9.94,73400.0,-4.93,-8.75,-8.63,0,*56
1485939662.62,29885,9.94,73398.3,-4.91,-8.81,-8.63,0,*5E
1485939663.83,29886,9.94,73400.5,-4.91,-9.01,-8.89,0,*50
1485939665.05,29887,9.94,73406.5,-4.93,-8.89,-8.67,0,*52
1485939666.3,29888,9.94,73396.0,-4.93,-8.89,-8.81,0,*55
1485939667.5,29889,9.94,73396.0,-4.91,-8.93,-9.01,0,*54
1485939668.74,29890,9.94,73400.0,-4.93,-9.01,-8.93,0,*5E
1485939670.01,29891,9.94,73398.5,-4.93,-9.37,-9.49,0,*5C
1485939671.25,29892,9.94,73396.5,-4.91,-9.57,-9.57,0,*54
1485939672.53,29893,9.94,73404.3,-4.93,-9.37,-9.37,0,*57
1485939673.75,29894,9.94,73400.3,-4.93,-9.19,-9.31,0,*5A
1485939675.0,29895,9.94,73394.5,-4.93,-9.19,-9.37,0,*5D
1485939676.22,29896,9.94,73400.3,-4.91,-9.31,-9.45,0,*53
1485939677.5,29897,9.94,73390.5,-4.93,-9.37,-9.49,0,*5A
1485939678.78,29898,9.94,73388.0,-4.93,-9.15,-9.15,0,*5C
1485939680.0,29899,9.94,73390.5,-4.91,-9.01,-8.81,0,*56
1485939681.23,29900,9.94,73392.0,-4.93,-9.05,-8.89,0,*59
1485939682.45,29901,9.94,73392.3,-4.91,-9.01,-8.81,0,*56
1485939683.7,29902,9.94,73392.3,-4.93,-8.51,-8.63,0,*5F
1485939684.92,29903,9.94,73396.5,-4.93,-8.41,-8.41,0,*5F
1485939686.17,29904,9.94,73396.0,-4.93,-8.33,-8.11,0,*58
1485939687.41,29905,9.94,73398.0,-4.93,-8.37,-7.95,0,*5E
1485939688.64,29906,9.94,73402.8,-4.93,-8.25,-7.83,0,*59
1485939689.9,29907,9.94,73398.0,-4.91,-8.51,-8.07,0,*5A
1485939691.12,29908,9.94,73392.8,-4.93,-8.63,-8.37,0,*55
1485939692.35,29909,9.94,73398.3,-4.93,-8.93,-8.55,0,*5F
1485939693.55,29910,9.94,73398.0,-4.91,-9.05,-8.89,0,*5A
1485939694.75,29911,9.94,73392.5,-4.91,-9.31,-9.01,0,*5D
1485939696.0,29912,9.94,73396.3,-4.93,-9.37,-9.05,0,*5E
1485939697.25,29913,9.94,73394.5,-4.93,-9.37,-9.05,0,*5F
1485939698.5,29914,9.94,73390.5,-4.93,-9.45,-9.19,0,*50
1485939699.75,29915,9.94,73402.0,-4.93,-9.31,-9.15,0,*5E
1485939700.99,29916,9.94,73396.8,-4.93,-9.49,-9.31,0,*54
1485939702.24,29917,9.94,73398.8,-4.93,-9.37,-9.23,0,*5F
1485939703.48,29918,9.94,73396.0,-4.93,-9.45,-9.31,0,*56
1485939704.72,29919,9.94,73390.5,-4.95,-9.61,-9.37,0,*51
1485939705.96,29920,9.94,73396.0,-4.95,-9.61,-9.41,0,*5A
1485939707.15,29921,9.94,73398.0,-4.95,-9.23,-9.23,0,*59
1485939708.34,29922,9.94,73400.8,-4.95,-9.23,-9.19,0,*53
1485939709.57,29923,9.94,73398.0,-4.95,-9.19,-9.11,0,*53
1485939710.76,29924,9.94,73398.8,-4.95,-9.27,-9.27,0,*5C
1485939712.03,29925,9.94,73396.3,-4.93,-9.57,-9.49,0,*54
1485939713.26,29926,9.94,73400.0,-4.93,-9.71,-9.71,0,*58
1485939714.5,29927,9.94,73398.8,-4.93,-9.61,-9.71,0,*58
1485939715.75,29928,9.94,73396.5,-4.93,-9.61,-9.71,0,*57
1485939717.02,29929,9.94,73402.0,-4.93,-9.49,-9.49,0,*57
1485939718.25,29930,9.94,73400.8,-4.93,-9.71,-9.75,0,*5B
1485939719.5,29931,9.94,73402.5,-4.93,-9.75,-9.83,0,*57
1485939720.75,29932,9.94,73406.3,-4.93,-9.49,-9.71,0,*56
1485939722.02,29933,9.94,73400.8,-4.93,-9.45,-9.61,0,*5A
1485939723.29,29934,9.94,73406.3,-4.93,-9.45,-9.61,0,*5D
1485939724.54,29935,9.94,73404.5,-4.93,-9.49,-9.71,0,*51
1485939725.78,29936,9.94,73404.8,-4.93,-9.57,-9.75,0,*59
1485939727.03,29937,9.94,73408.3,-4.93,-9.49,-9.71,0,*53
1485939728.25,29938,9.94,73406.3,-4.91,-9.31,-9.61,0,*50
1485939729.49,29939,9.94,73410.8,-4.93,-9.57,-9.75,0,*56
1485939730.75,29940,9.94,73404.0,-4.93,-9.37,-9.71,0,*5A
1485939732.0,29941,9.94,73406.3,-4.93,-9.49,-9.75,0,*56
1485939733.2,29942,9.94,73404.8,-4.91,-9.71,-9.97,0,*50
1485939734.41,29943,9.94,73410.3,-4.91,-9.61,-9.89,0,*5F
1485939735.64,29944,9.94,73406.5,-4.93,-9.31,-9.71,0,*58
1485939736.86,29945,9.94,73404.8,-4.91,-9.45,-9.75,0,*5C
1485939738.09,29946,9.94,73404.5,-4.91,-9.37,-9.71,0,*5E
1485939739.31,29947,9.94,73408.0,-4.91,-9.31,-9.61,0,*58
1485939740.51,29948,9.94,73404.8,-4.91,-9.23,-9.71,0,*55
1485939741.71,29949,9.94,73404.8,-4.91,-9.31,-9.71,0,*57
1485939742.97,29950,9.94,73408.3,-4.89,-9.41,-9.67,0,*56
1485939744.19,29951,9.94,73406.3,-4.89,-9.19,-9.67,0,*5A
1485939745.42,29952,9.94,73406.8,-4.89,-9.27,-9.67,0,*54
1485939746.68,29953,9.94,73406.5,-4.89,-9.01,-9.53,0,*56
1485939747.9,29954,9.94,73408.5,-4.89,-8.97,-9.27,0,*5C
1485939749.15,29955,9.94,73410.5,-4.89,-8.97,-9.45,0,*59
1485939750.38,29956,9.94,73408.8,-4.89,-8.97,-9.27,0,*5E
1485939751.62,29957,9.94,73410.0,-4.89,-8.97,-9.41,0,*5F
1485939752.9,29958,9.94,73412.0,-4.89,-9.11,-9.57,0,*58
1485939754.1,29959,9.94,73408.8,-4.87,-9.19,-9.71,0,*5B
1485939755.3,29960,9.94,73416.0,-4.87,-9.31,-9.79,0,*53
1485939756.5,29961,9.94,73408.0,-4.87,-9.27,-9.67,0,*5A
1485939757.75,29962,9.94,73410.8,-4.87,-9.15,-9.57,0,*5B
1485939758.98,29963,9.94,73408.8,-4.87,-9.01,-9.53,0,*5B
1485939760.23,29964,9.94,73410.8,-4.89,-8.97,-9.45,0,*5B
1485939761.46,29965,9.94,73412.5,-4.87,-8.97,-9.45,0,*54
1485939762.69,29966,9.94,73412.0,-4.87,-9.01,-9.53,0,*5E
1485939763.94,29967,9.94,73408.8,-4.87,-9.15,-9.57,0,*5E
1485939765.19,29968,9.94,73416.5,-4.85,-8.97,-9.49,0,*57
1485939766.44,29969,9.94,73410.3,-4.85,-9.05,-9.53,0,*57
1485939767.72,29970,9.94,73410.8,-4.85,-9.15,-9.61,0,*5F
1485939768.95,29971,9.94,73418.3,-4.83,-8.93,-9.37,0,*54
1485939770.2,29972,9.94,73410.8,-4.85,-8.81,-9.27,0,*53
1485939771.43,29973,9.94,73412.5,-4.85,-8.85,-9.23,0,*52
1485939772.68,29974,9.94,73412.8,-4.85,-8.93,-9.37,0,*57
1485939773.93,29975,9.94,73412.3,-4.85,-8.81,-9.05,0,*54
1485939775.16,29976,9.94,73410.8,-4.85,-8.85,-9.05,0,*53
1485939776.35,29977,9.94,73404.0,-4.83,-8.67,-8.93,0,*56
1485939777.57,29978,9.94,73406.5,-4.85,-8.97,-9.23,0,*5A
1485939778.82,29979,9.94,73404.8,-4.85,-9.23,-9.49,0,*59
1485939780.08,29980,9.94,73398.8,-4.85,-9.41,-9.67,0,*57
1485939781.3,29981,9.94,73402.8,-4.87,-9.45,-9.79,0,*5F
1485939782.52,29982,9.94,73402.8,-4.87,-9.19,-9.45,0,*5A
1485939783.75,29983,9.94,73400.0,-4.87,-9.11,-9.19,0,*5A
1485939784.95,29984,9.94,73398.8,-4.87,-8.75,-9.01,0,*57
1485939786.15,29985,9.94,73400.5,-4.87,-8.85,-8.85,0,*54
1485939787.35,29986,9.94,73396.5,-4.87,-8.85,-8.71,0,*5C
1485939788.58,29987,9.94,73400.3,-4.87,-8.63,-8.51,0,*57
1485939789.77,29988,9.94,73392.3,-4.87,-8.71,-8.33,0,*5F
1485939791.0,29989,9.94,73394.8,-4.89,-8.85,-8.45,0,*5A
1485939792.24,29990,9.94,73400.0,-4.89,-9.01,-8.85,0,*53
1485939793.47,29991,9.94,73400.8,-4.89,-9.19,-9.01,0,*56
1485939794.72,29992,9.94,73400.0,-4.89,-9.11,-9.01,0,*5D
1485939795.95,29993,9.94,73400.0,-4.89,-9.01,-8.97,0,*53
1485939797.21,29994,9.94,73398.0,-4.91,-9.15,-9.15,0,*53
1485939798.41,29995,9.94,73390.5,-4.91,-9.01,-9.05,0,*56
1485939799.63,29996,9.94,73394.3,-4.91,-8.63,-8.51,0,*50
1485939800.83,29997,9.94,73396.0,-4.91,-8.67,-8.41,0,*54
1485939802.02,29998,9.94,73386.0,-4.91,-8.89,-8.55,0,*5E
1485939803.29,29999,9.94,73392.0,-4.93,-9.37,-9.15,0,*5C
1485939804.52,30000,9.94,73396.3,-4.93,-9.31,-9.19,0,*57
1485939805.77,30001,9.94,73396.0,-4.93,-9.19,-9.15,0,*50
1485939807.01,30002,9.94,73398.3,-4.93,-9.45,-9.31,0,*5C
1485939808.23,30003,9.94,73402.0,-4.93,-9.23,-9.19,0,*57
1485939809.51,30004,9.94,73400.3,-4.93,-9.15,-9.15,0,*59
1485939810.76,30005,9.94,73400.0,-4.93,-9.19,-9.15,0,*54
1485939812.01,30006,9.94,73394.0,-4.93,-9.15,-9.05,0,*5A
1485939813.24,30007,9.94,73396.3,-4.93,-9.23,-9.19,0,*53
1485939814.48,30008,9.94,73396.3,-4.93,-9.19,-9.15,0,*59
1485939815.74,30009,9.94,73400.0,-4.93,-9.15,-9.05,0,*55
1485939816.96,30010,9.94,73394.3,-4.93,-9.31,-9.05,0,*5B
1485939818.2,30011,9.94,73392.3,-4.93,-8.81,-8.63,0,*51
1485939819.43,30012,9.94,73396.8,-4.93,-8.55,-8.25,0,*59
1485939820.66,30013,9.94,73394.0,-4.93,-8.55,-8.37,0,*5B
1485939821.88,30014,9.94,73396.3,-4.93,-8.67,-8.41,0,*5C
1485939823.12,30015,9.94,73396.8,-4.93,-8.67,-8.51,0,*5C
1485939824.37,30016,9.94,73394.8,-4.93,-8.75,-8.51,0,*5C
1485939825.59,30017,9.94,73396.3,-4.93,-9.05,-8.75,0,*5D
1485939826.81,30018,9.94,73396.0,-4.93,-8.75,-8.41,0,*53
1485939828.04,30019,9.94,73396.3,-4.93,-8.75,-8.37,0,*53
1485939829.3,30020,9.94,73398.8,-4.93,-8.89,-8.51,0,*5A
1485939830.54,30021,9.94,73394.3,-4.93,-8.81,-8.41,0,*52
1485939831.73,30022,9.94,73392.3,-4.91,-8.93,-8.67,0,*54
1485939832.96,30023,9.94,73392.8,-4.93,-8.93,-8.75,0,*54
1485939834.19,30024,9.94,73390.3,-4.91,-9.15,-9.01,0,*5C
1485939835.39,30025,9.94,73390.0,-4.91,-9.19,-9.05,0,*55
1485939836.65,30026,9.94,73398.0,-4.93,-9.15,-9.05,0,*58
1485939837.87,30027,9.94,73388.3,-4.93,-9.23,-9.05,0,*5C
1485939839.15,30028,9.94,73394.0,-4.93,-9.15,-8.81,0,*5B
1485939840.39,30029,9.94,73394.0,-4.93,-9.05,-8.81,0,*5B
1485939841.59,30030,9.94,73390.5,-4.95,-9.23,-9.05,0,*5C
1485939842.85,30031,9.94,73396.5,-4.93,-9.15,-8.89,0,*5B
1485939844.07,30032,9.94,73398.0,-4.93,-8.89,-8.55,0,*5D
1485939845.35,30033,9.94,73396.5,-4.93,-8.51,-8.07,0,*5E
1485939846.6,30034,9.94,73398.5,-4.91,-8.51,-8.11,0,*5C
1485939847.88,30035,9.94,73396.3,-4.93,-8.51,-8.07,0,*58
1485939849.14,30036,9.94,73394.5,-4.93,-8.93,-8.51,0,*56
1485939850.35,30037,9.94,73392.8,-4.91,-8.81,-8.41,0,*57
1485939851.58,30038,9.94,73398.8,-4.93,-8.89,-8.55,0,*57
1485939852.8,30039,9.94,73392.5,-4.93,-8.67,-8.37,0,*52
1485939854.05,30040,9.94,73398.8,-4.93,-8.75,-8.51,0,*5F
1485939855.27,30041,9.94,73400.0,-4.97,-8.93,-8.67,0,*57
1485939856.47,30042,9.94,73392.0,-4.95,-8.55,-8.45,0,*5C
1485939857.65,30043,9.94,73394.8,-4.95,-8.67,-8.67,0,*5C
1485939858.85,30044,9.94,73396.5,-4.95,-8.97,-8.85,0,*58
1485939860.04,30045,9.94,73400.0,-4.95,-8.67,-8.45,0,*5A
1485939861.26,30046,9.94,73402.0,-4.97,-8.67,-8.17,0,*5C
1485939862.46,30047,9.94,73400.0,-4.95,-8.71,-8.29,0,*55
1485939863.68,30048,9.94,73406.0,-4.95,-8.41,-8.03,0,*51
1485939864.86,30049,9.94,73400.5,-4.95,-8.67,-8.25,0,*50
1485939866.09,30050,9.94,73402.3,-4.93,-8.75,-8.25,0,*5D
1485939867.36,30051,9.94,73400.5,-4.93,-8.81,-8.51,0,*54
1485939868.58,30052,9.94,73402.8,-4.93,-8.93,-8.63,0,*55
1485939869.78,30053,9.94,73398.8,-4.95,-8.85,-8.25,0,*57
1485939870.99,30054,9.94,73400.3,-4.95,-8.81,-8.25,0,*54
1485939872.24,30055,9.94,73396.5,-4.93,-8.81,-8.37,0,*50
1485939873.47,30056,9.94,73396.3,-4.93,-8.63,-8.21,0,*58
1485939874.7,30057,9.94,73400.5,-4.93,-8.63,-8.37,0,*5E
1485939875.97,30058,9.94,73402.5,-4.93,-8.81,-8.51,0,*5D
1485939877.22,30059,9.94,73396.5,-4.93,-8.89,-8.51,0,*54
1485939878.45,30060,9.94,73396.3,-4.93,-8.89,-8.41,0,*5F
1485939879.67,30061,9.94,73402.3,-4.93,-8.63,-8.25,0,*58
1485939880.9,30062,9.94,73404.5,-4.93,-8.63,-8.37,0,*58
1485939882.16,30063,9.94,73402.5,-4.93,-8.37,-8.07,0,*5B
1485939883.41,30064,9.94,73402.5,-4.93,-8.37,-8.11,0,*5B
1485939884.63,30065,9.94,73406.5,-4.91,-8.63,-8.11,0,*59
1485939885.88,30066,9.94,73400.0,-4.93,-8.37,-7.99,0,*56
1485939887.13,30067,9.94,73396.5,-4.93,-8.51,-8.25,0,*5F
1485939888.35,30068,9.94,73402.3,-4.93,-8.63,-8.25,0,*51
1485939889.58,30069,9.94,73402.3,-4.93,-8.75,-8.37,0,*54
1485939890.83,30070,9.94,73400.5,-4.93,-8.89,-8.51,0,*5F
1485939892.05,30071,9.94,73402.3,-4.93,-8.67,-8.41,0,*5F
1485939893.25,30072,9.94,73404.3,-4.91,-8.93,-8.63,0,*55
1485939894.44,30073,9.94,73400.0,-4.91,-8.93,-8.67,0,*50
1485939895.7,30074,9.94,73404.8,-4.93,-9.15,-8.75,0,*59
1485939896.92,30075,9.94,73398.0,-4.93,-9.01,-8.75,0,*5D
1485939898.16,30076,9.94,73402.5,-4.93,-8.81,-8.55,0,*55
1485939899.39,30077,9.94,73402.5,-4.93,-9.05,-8.89,0,*58
1485939900.65,30078,9.94,73400.3,-4.93,-9.15,-8.93,0,*5D
1485939901.87,30079,9.94,73406.5,-4.93,-8.93,-8.75,0,*5B
1485939903.07,30080,9.94,73402.5,-4.91,-9.19,-8.93,0,*54
1485939904.27,30081,9.94,73400.3,-4.91,-9.19,-8.93,0,*55
1485939905.47,30082,9.94,73406.3,-4.91,-9.19,-9.01,0,*5C
1485939906.69,30083,9.94,73404.0,-4.93,-9.23,-9.05,0,*52
1485939907.92,30084,9.94,73408.3,-4.93,-9.01,-8.75,0,*53
1485939909.11,30085,9.94,73406.8,-4.91,-8.75,-8.55,0,*50
1485939910.38,30086,9.94,73402.5,-4.93,-8.81,-8.51,0,*5E
1485939911.61,30087,9.94,73404.5,-4.93,-8.55,-8.37,0,*56
1485939912.8,30088,9.94,73404.3,-4.95,-8.59,-8.41,0,*52
1485939914.02,30089,9.94,73404.0,-4.93,-8.67,-8.41,0,*58
1485939915.21,30090,9.94,73400.8,-4.95,-8.85,-8.67,0,*5E
1485939916.4,30091,9.94,73400.5,-4.95,-8.97,-8.67,0,*5C
1485939917.62,30092,9.94,73402.8,-4.93,-9.23,-9.05,0,*52
1485939918.83,30093,9.94,73396.0,-4.95,-9.49,-9.19,0,*54
1485939920.05,30094,9.94,73404.5,-4.95,-9.49,-9.27,0,*5E
1485939921.3,30095,9.94,73402.3,-4.95,-9.37,-9.11,0,*53
1485939922.49,30096,9.94,73400.0,-4.95,-9.27,-9.19,0,*59
1485939923.69,30097,9.94,73404.5,-4.95,-9.05,-8.97,0,*5F
1485939924.94,30098,9.94,73402.0,-4.97,-9.05,-8.81,0,*55
1485939926.13,30099,9.94,73404.5,-4.95,-8.85,-8.71,0,*50
1485939927.34,30100,9.94,73404.3,-4.95,-8.93,-8.85,0,*5D
1485939928.53,30101,9.94,73400.3,-4.95,-8.97,-8.93,0,*5F
1485939929.76,30102,9.94,73392.3,-4.97,-8.93,-8.85,0,*5D
1485939930.95,30103,9.94,73396.5,-4.95,-8.55,-8.59,0,*55
1485939932.14,30104,9.94,73394.3,-4.95,-8.29,-8.29,0,*5E
1485939933.39,30105,9.94,73394.8,-4.95,-8.11,-8.11,0,*5F
1485939934.61,30106,9.94,73402.8,-4.95,-7.87,-7.77,0,*53
1485939935.86,30107,9.94,73408.0,-4.95,-7.65,-7.61,0,*59
1485939937.08,30108,9.94,73410.0,-4.95,-7.53,-7.43,0,*53
1485939938.33,30109,9.94,73410.8,-4.93,-7.87,-7.61,0,*5D
1485939939.56,30110,9.94,73410.8,-4.91,-7.87,-7.61,0,*57
1485939940.8,30111,9.94,73410.3,-4.93,-8.21,-7.99,0,*50
1485939942.03,30112,9.94,73402.3,-4.93,-8.55,-8.41,0,*5A
1485939943.27,30113,9.94,73406.3,-4.93,-8.81,-8.63,0,*52
1485939944.48,30114,9.94,73406.3,-4.93,-8.75,-8.55,0,*5B
1485939945.68,30115,9.94,73408.5,-4.91,-8.37,-8.25,0,*59
1485939946.9,30116,9.94,73408.0,-4.93,-8.55,-8.41,0,*5E
1485939948.15,30117,9.88,73410.3,-4.93,-8.55,-8.51,0,*5E
1485939949.37,30118,9.94,73412.3,-4.93,-8.67,-8.55,0,*54
1485939950.58,30119,9.94,73414.8,-4.93,-8.75,-8.67,0,*57
1485939951.8,30120,9.94,73412.8,-4.93,-8.67,-8.41,0,*5A
1485939953.03,30121,9.94,73418.8,-4.93,-8.63,-8.41,0,*5F
1485939954.24,30122,9.94,73400.8,-4.93,-8.75,-8.55,0,*5E
1485939955.49,30123,9.94,73394.5,-4.93,-8.51,-8.25,0,*5E
1485939956.74,30124,9.88,73394.8,-4.93,-8.33,-8.07,0,*5D
1485939957.93,30125,9.94,73410.5,-4.95,-8.59,-8.41,0,*54
1485939959.15,30126,9.94,73404.8,-4.95,-8.29,-8.11,0,*55
1485939960.36,30127,9.94,73404.3,-4.95,-8.29,-8.03,0,*57
1485939961.61,30128,9.94,73408.3,-4.93,-8.33,-8.07,0,*51
1485939962.8,30129,9.94,73412.3,-4.95,-8.45,-8.45,0,*51
1485939964.02,30130,9.94,73408.0,-4.97,-8.59,-8.67,0,*56
1485939965.22,30131,9.94,73408.0,-4.95,-8.37,-8.45,0,*5D
1485939966.41,30132,9.94,73410.8,-4.95,-8.37,-8.29,0,*54
1485939967.59,30133,9.94,73406.8,-4.95,-8.59,-8.67,0,*57
1485939968.81,30134,9.94,73410.8,-4.95,-8.67,-8.81,0,*55
1485939970.05,30135,9.94,73410.5,-4.93,-8.51,-8.63,0,*5B
1485939971.3,30136,9.94,73410.5,-4.93,-8.37,-8.51,0,*59
1485939972.54,30137,9.94,73408.5,-4.93,-8.51,-8.67,0,*5D
1485939973.79,30138,9.94,73406.5,-4.93,-8.37,-8.51,0,*57
1485939975.01,30139,9.94,73408.3,-4.93,-8.33,-8.41,0,*53
1485939976.22,30140,9.94,73406.0,-4.93,-8.41,-8.55,0,*5D
1485939977.45,30141,9.94,73402.3,-4.93,-8.25,-8.25,0,*59
1485939978.7,30142,9.94,73400.0,-4.93,-8.25,-8.07,0,*5A
1485939979.95,30143,9.94,73408.8,-4.93,-8.33,-8.07,0,*5C
1485939981.17,30144,9.88,73408.5,-4.93,-8.41,-8.21,0,*5A
1485939982.42,30145,9.94,73410.0,-4.93,-8.25,-7.99,0,*55
1485939983.68,30146,9.94,73410.3,-4.93,-8.21,-8.07,0,*5A
1485939984.9,30147,9.94,73408.0,-4.93,-8.25,-8.21,0,*5B
1485939986.13,30148,9.94,73406.8,-4.93,-8.37,-8.37,0,*50
1485939987.35,30149,9.94,73404.3,-4.91,-8.67,-8.51,0,*56
1485939988.6,30150,9.94,73406.8,-4.93,-8.93,-8.81,0,*5A
1485939989.85,30151,9.94,73400.3,-4.93,-8.93,-8.81,0,*5B
1485939991.09,30152,9.94,73396.3,-4.93,-8.81,-8.75,0,*50
1485939992.32,30153,9.94,73396.3,-4.93,-8.93,-8.89,0,*51
1485939993.57,30154,9.94,73394.8,-4.93,-8.81,-8.89,0,*55
1485939994.76,30155,9.94,73392.8,-4.95,-8.97,-9.05,0,*50
1485939995.98,30156,9.94,73388.3,-4.95,-9.05,-9.11,0,*5C
1485939997.18,30157,9.94,73382.0,-4.95,-8.97,-8.97,0,*58
1485939998.37,30158,9.94,73384.8,-4.95,-8.97,-8.97,0,*57
1485939999.56,30159,9.94,73384.8,-4.95,-8.97,-9.05,0,*5C
1485940000.79,30160,9.94,73384.5,-4.97,-9.05,-9.05,0,*5E
1485940001.99,30161,9.94,73386.0,-4.95,-9.05,-8.97,0,*57
1485940003.19,30162,9.94,73388.0,-4.95,-9.05,-9.05,0,*5E
1485940004.38,30163,9.94,73388.3,-4.95,-8.97,-8.93,0,*5B
1485940005.58,30164,9.94,73394.5,-4.95,-8.93,-8.97,0,*5C
1485940006.8,30165,9.94,73396.8,-4.97,-8.67,-8.71,0,*5C
1485940008.02,30166,9.94,73396.5,-4.97,-8.45,-8.41,0,*5C
1485940009.3,30167,9.94,73396.3,-4.97,-8.11,-8.11,0,*59
1485940010.49,30168,9.94,73402.3,-4.95,-8.17,-8.25,0,*55
1485940011.71,30169,9.94,73396.8,-4.97,-8.37,-8.29,0,*58
1485940012.93,30170,9.94,73396.5,-4.97,-8.41,-8.29,0,*51
1485940014.21,30171,9.94,73396.0,-4.97,-8.11,-7.91,0,*59
1485940015.48,30172,9.94,73402.0,-4.97,-7.91,-7.65,0,*56
1485940016.72,30173,9.88,73396.8,-4.97,-7.91,-7.53,0,*52
1485940018.0,30174,9.94,73400.8,-4.97,-7.91,-7.61,0,*54
1485940019.22,30175,9.94,73404.3,-4.97,-7.87,-7.49,0,*58
1485940020.47,30176,9.94,73402.3,-4.97,-7.77,-7.53,0,*5F
1485940021.69,30177,9.94,73404.0,-4.95,-7.73,-7.49,0,*53
1485940022.97,30178,9.94,73402.0,-4.97,-7.65,-7.43,0,*53
1485940024.22,30179,9.94,73404.0,-4.97,-7.73,-7.53,0,*54
1485940025.47,30180,9.94,73406.8,-4.97,-7.53,-7.35,0,*50
1485940026.72,30181,9.94,73404.0,-4.97,-7.43,-7.23,0,*57
1485940027.97,30182,9.94,73404.5,-4.97,-7.43,-7.23,0,*54
1485940029.19,30183,9.94,73402.8,-4.95,-7.43,-7.19,0,*5E
1485940030.41,30184,9.94,73402.5,-4.95,-7.35,-7.19,0,*58
1485940031.61,30185,9.94,73400.0,-4.95,-7.23,-7.19,0,*5E
1485940032.83,30186,9.88,73400.0,-4.95,-7.35,-7.19,0,*5A
1485940034.05,30187,9.94,73402.0,-4.95,-7.35,-7.19,0,*5B
1485940035.27,30188,9.94,73402.0,-4.95,-7.65,-7.49,0,*54
1485940036.52,30189,9.94,73396.8,-4.95,-7.61,-7.35,0,*5A
1485940037.73,30190,9.94,73394.0,-4.95,-7.91,-7.49,0,*56
1485940039.01,30191,9.94,73394.8,-4.97,-8.11,-7.61,0,*58
1485940040.25,30192,9.94,73392.0,-4.95,-8.03,-7.61,0,*5A
1485940041.46,30193,9.94,73392.5,-4.95,-8.03,-7.53,0,*5A
1485940042.68,30194,9.94,73392.8,-4.95,-8.59,-7.91,0,*5C
1485940043.91,30195,9.94,73394.8,-4.95,-8.71,-8.11,0,*50
1485940045.13,30196,9.94,73394.8,-4.95,-8.59,-8.11,0,*59
1485940046.34,30197,9.94,73394.8,-4.95,-8.81,-8.41,0,*58
1485940047.53,30198,9.94,73394.0,-4.95,-8.67,-8.29,0,*51
1485940048.72,30199,9.94,73400.3,-4.95,-8.45,-8.25,0,*5C
1485940049.92,30200,9.94,73402.8,-4.95,-8.37,-8.25,0,*5A
1485940051.16,30201,9.94,73396.8,-4.95,-7.99,-7.91,0,*50
1485940052.43,30202,9.94,73398.8,-4.97,-7.77,-7.65,0,*5A
1485940053.71,30203,9.94,73400.0,-4.97,-7.77,-7.65,0,*5B
1485940054.98,30204,9.94,73400.5,-4.97,-7.91,-7.73,0,*53
1485940056.2,30205,9.94,73404.5,-4.95,-7.73,-7.53,0,*5E
1485940057.42,30206,9.88,73396.3,-4.95,-8.11,-7.87,0,*5F
1485940058.67,30207,9.94,73400.3,-4.97,-8.29,-8.11,0,*57
1485940059.86,30208,9.94,73406.0,-4.95,-8.55,-8.25,0,*56
1485940061.12,30209,9.94,73406.5,-4.97,-8.37,-8.11,0,*56
1485940062.37,30210,9.94,73406.8,-4.97,-8.41,-8.11,0,*5F
1485940063.62,30211,9.94,73404.5,-4.97,-8.37,-8.11,0,*5F
1485940064.87,30212,9.94,73402.8,-4.97,-8.25,-8.11,0,*5F
1485940066.12,30213,9.94,73406.0,-4.97,-8.17,-7.91,0,*58
1485940067.34,30214,9.94,73406.3,-4.97,-8.17,-7.87,0,*58
1485940068.59,30215,9.94,73392.3,-4.97,-8.37,-8.03,0,*58
1485940069.84,30216,9.94,73396.5,-4.97,-8.45,-8.03,0,*5E
1485940071.09,30217,9.94,73392.5,-4.97,-8.37,-7.91,0,*5E
1485940072.34,30218,9.94,73392.5,-4.97,-8.17,-7.73,0,*5F
1485940073.56,30219,9.88,73394.3,-5.01,-8.17,-7.65,0,*57
1485940074.8,30220,9.94,73392.3,-5.01,-7.91,-7.77,0,*5F
1485940076.04,30221,9.94,73396.3,-5.01,-7.95,-7.69,0,*55
1485940077.28,30222,9.88,73390.0,-5.03,-7.77,-7.53,0,*51
1485940078.52,30223,9.94,73400.8,-5.01,-8.07,-8.03,0,*50
1485940079.76,30224,9.94,73396.8,-5.03,-8.21,-8.03,0,*51
1485940080.98,30225,9.88,73402.3,-5.01,-8.17,-7.95,0,*57
1485940082.25,30226,9.94,73396.8,-5.03,-8.07,-7.95,0,*57
1485940083.51,30227,9.94,73400.3,-5.03,-7.91,-7.69,0,*55
1485940084.76,30228,9.94,73392.3,-5.03,-7.83,-7.65,0,*55
1485940086.0,30229,9.88,73388.5,-5.03,-7.69,-7.49,0,*5E
1485940087.22,30230,9.94,73394.8,-5.03,-7.49,-7.23,0,*58
1485940088.48,30231,9.94,73394.3,-5.03,-7.39,-7.27,0,*5A
1485940089.7,30232,9.94,73392.3,-5.01,-7.49,-7.35,0,*5F
1485940090.94,30233,9.94,73392.0,-5.03,-7.27,-7.15,0,*56
1485940092.19,30234,9.94,73392.3,-5.05,-7.01,-6.93,0,*5C
1485940093.44,30235,9.94,73392.8,-5.03,-7.11,-6.97,0,*5E
1485940094.68,30236,9.94,73392.3,-5.03,-7.35,-7.23,0,*55
1485940095.93,30237,9.94,73396.5,-5.01,-7.35,-7.35,0,*51
1485940097.15,30238,9.94,73400.0,-5.01,-7.53,-7.39,0,*52
1485940098.36,30239,9.94,73398.5,-5.03,-7.53,-7.49,0,*56
1485940099.58,30240,9.94,73400.0,-5.03,-7.53,-7.49,0,*58
1485940100.85,30241,9.94,73400.8,-5.03,-7.91,-7.65,0,*59
1485940102.07,30242,9.94,73396.0,-5.03,-8.17,-7.83,0,*53
1485940103.34,30243,9.94,73394.0,-5.03,-7.95,-7.69,0,*53
1485940104.56,30244,9.94,73396.8,-5.01,-8.07,-7.83,0,*56
1485940105.77,30245,9.94,73394.5,-5.03,-8.33,-8.17,0,*50
1485940106.99,30246,9.94,73390.5,-5.03,-8.41,-8.21,0,*53
1485940108.24,30247,9.94,73394.8,-5.03,-8.51,-8.21,0,*53
1485940109.46,30248,9.94,73392.0,-5.01,-8.33,-8.07,0,*5E
1485940110.67,30249,9.94,73392.5,-5.03,-8.21,-8.17,0,*5F
1485940111.93,30250,9.94,73396.3,-5.03,-8.17,-8.07,0,*53
1485940113.19,30251,9.94,73388.0,-5.03,-8.03,-7.91,0,*57
1485940114.42,30252,9.94,73390.5,-5.05,-7.99,-7.87,0,*59
1485940115.67,30253,9.94,73388.3,-5.05,-7.69,-7.57,0,*5A
1485940116.94,30254,9.94,73388.5,-5.07,-7.69,-7.61,0,*5A
1485940118.16,30255,9.94,73390.8,-5.05,-7.53,-7.39,0,*5D
1485940119.41,30256,9.94,73398.3,-5.05,-7.69,-7.57,0,*5F